OBJECT L

Satellite information

Favourite Embed

Satellite Type and Status

UNKNOWNIN ORBIT

Key statistics

Satellite OBJECT L at a glance.

Uptime

2131

Days in orbit

Revolutions

≈ 14.9

Per day

Orbit

SSO

Sun Synchronous Orbit

Inclination

97.8

Latest

Satellite identification and parameters

Extended collection of information and parameters for OBJECT L.

Object identification

Identified? True

Debris? False

Object name: OBJECT L

International designator: 2019-093L

Object number (NORAD): 44889

Object ID (CCSDS): 44889

Country: TO BE DETERMINED/UNKNOWN (TBD)

Current information (Y/N): Y

RCS size: MEDIUM

Orbital parameters

Period: 96.476 minutes

Inclination: 97.7799 deg

SMA: 6967.97 km

Apoapsis: 599.339 km

Periapsis: 580.332 km

RAAN: 9.0819 deg

Eccentricy: 0.00136387

Argument of periapsis: 127.3001 deg

Mean anomaly: 232.9463 deg

Mean motion: 14.92599616 rev/day

Mean motion (dot): 0.00007444 rev/day2

B* drag term: 0.00072718831 1/REarth

Two-line elements (TLE)

Creation date: Oct. 20, 2025, 2:10 a.m.

Reference frame: TEME

Reference center: EARTH

Epoch: Oct. 19, 2025, 11:07 p.m. UTC

TLE line 0: 0 OBJECT L

TLE line 1: 1 44889U 19093L 25292.96375230 .00007444 00000-0 72719-3 0 9998

TLE line 2: 2 44889 97.7799 9.0819 0013639 127.3001 232.9463 14.92599616315949

Live tracking on map

Real-time ground track for satellite OBJECT L.

In-orbit conjunctions

There are no conjunctions computed for OBJECT L, at the moment. Check back to stay up to date, as we update our databases every day.

Go to all conjunctions

Associated space launch

On April 24, 2015, China and Brazil have signed the agreement for the construction of CBERS-4A. It's a third satellite in the continuity to the CBERS program, and a sixth CBERS satellite to be constructed. The CBERS satellites enhance and complement the existing remote sensing systems in an effort to improve our knowledge about the Earth environment and resources.

OBJECT L was lifted into orbit during the mission ‘Long March 4B | CBERS-4A’, on board a Long March 4B space rocket.

The launch took place on Dec. 20, 2019, 3:22 a.m. from Launch Complex 9.

For more information about the launch, click the button.

Launch to space Long March 4B | CBERS-4A
Long March 4B | CBERS-4A

Agency: N/A

Status: Launch Successful

Launch date: Dec. 20, 2019, 3:22 a.m. UTC

Rocket: Long March 4B

Launch pad: Launch Complex 9

Location: Taiyuan Satellite Launch Center, People's Republic of China

...

Latest news about this satellite

News about space launch
Long March 4B lofts CBERS-04A and Ethiopia’s first satellite


Newsletter sign-up

Weekly statistics, charts and insights to help you stay on top of the space industry.